PRÉPARATION DES VOLS

Pour bien préparer vos sorties, pensez à télécharger la fiche technique de votre avion, la check-list, le manuel de vol, le devis de centrage ou encore un modèle de Log de Nav.

Robin DR 400 120 (F-GSBN)

Type : 3/4 places instruction, entraînement, voyage.

Moteur : Lycoming 4 cyl. à plat, 120 cv.

Performances : 190 km/h

Autonomie : 4 h soit environ 760 km franchissables.

Avionique : 1 radio com Bendix/King, 1 VOR, 1 transpondeur mode S, intercom 2 voies type.

 

Robin DR 400 120 (F-GNNY)

Type : 3/4 places instruction, entraînement, voyage.

Moteur : Lycoming 4 cyl. à plat, 120 cv.

Performances : 190 km/h

Autonomie : 4 h soit environ 760 km franchissables.

Avionique : 1 radio com Bendix/King, 1 VOR, 1 transpondeur mode S, intercom 2 voies type.

 

Robin DR 400 (F-BXRY)

Type : 2/3 places en instruction & entraînement (devis de centrage).

Moteur : Lycoming 4 cyl. à plat, 108 cv.

Performances : 180 km/h

Autonomie : 4 h soit environ 720 km franchissables.

Avionique : 1 radio com Bendix/King, 1 VOR, 1 transpondeur.

Robin DR 400 140 B (F-GHPJ)

Type : 4 places, pour entraînement et voyage.

Moteur : Robin Lycoming 4 cyl. à plat, 160 cv.

Performances : 206 km/h

Autonomie : 3 h 30 min soit environ 720 km de distance franchissable.

Avionique : 1 radio com Bendix/King, 1 VOR, 1 transpondeur mode S, intercom 4 voies.

 

Robin DR 400 180 (F-BVMP)

Type : 4 places pour le voyage.

Moteur : Lycoming 4 cyl. à plat, 180 cv.

Performances : 250 km/h

Autonomie : 4 h soit environ 1000 km franchissables.

Avionique : 1 radio 8.33, 1 transpondeur mode S et 1 Garmin GNS 430

 

Piper Archer II (PA 28) (F-GALA)

 


Sab’in Shoot, photographe à Villepreux

Type : 4 places, pour entraînement, voyage.

Moteur : Lycoming 4 cyl. à plat, 180 cv.

Performances : 220 km/h

Autonomie : 5 h30 soit environ 1200 km de distance franchissable.

Avionique : Radio intégrée au système GPS Garmin GNS 430, 2 VOR, 1 DME, 1 transpondeur mode S, pilote automatique 2 axes, intercom 4 voies et boite de mélange.

 

Télécharger l’aide mémoire de la radio GTR 225A

Télécharger l’aide mémoire de la radio GNC 255A

Télécharger un log de nav

Log 1

Cliquez sur le formulaire pour le télécharger

Log_1*Notice d’utilisation*

Ce Log de Nav a été optimisé pour rendre les calculs automatiques sous Excel. Indiquez simplement vos points de report, les altitudes et les distances en NM. La feuille calcule alors le temps sans vent pour chaque étape et donne le total, qu’elle convertit en heure-minutes. Elle calcule également la distance totale et la convertit en kilomètres. Enfin, elle affiche le résultat du devis carburant, calculé automatiquement par le 2ème feuillet. Vous pouvez également inscrire préalablement les fréquences Radio et Nav. Les autres cases sont à remplir pendant le vol : date, top départ, heure estimée (grisée), heure réelle,horamètre, Atis…
Bons vols à tous !
Guillaume

Log 2

Cliquez sur le formulaire pour le télécharger

Log_2

Log 3

 Cliquez sur le formulaire pour le télécharger

Log_3

L’alphabet Morse et l’alphabet international

Alphabet International

Nos coordonnées

Aéroclub Renault

Aérodrome de Chavenay

78450 Chavenay-Villepreux

telephone

Atis

Télécharger la VAC LFPX

Télécharger le calcul de centrage

Télécharger la feuille ATIS

Télécharger le mémo VFR 2019-2020

METARS / TAF de Toussus, Evreux, Orly et Roissy

Toussus

LFPN 261800Z AUTO 25007KT 9999 FEW045 SCT070 05/M01 Q1011 TEMPO 27018G28KT 3000 SHRA BKN012 BKN020CB

TAF TAF AMD LFPN 132015Z 1320/1420 17005KT 5000 BKN025 TEMPO 1320/1324 2000 BR OVC008 PROB30 TEMPO 1320/1324 0800 FG OVC002

Evreux

LFOE 261900Z AUTO 26006KT CAVOK 03/01 Q1012 NOSIG

TAF TAF LFOE 261400Z 2615/2715 28012KT 9999 SCT020 BKN040 TEMPO 2615/2618 28020G35KT 4000 SHRA BKN015 BKN020CB PROB30 TEMPO 2615/2616 4000 SHRAGS BKN010 BKN020CB BECMG 2619/2621 25008KT BECMG 2701/2703 19012KT 4000 -RA BKN015 BKN020 PROB30 TEMPO 2703/2707 18020G30KT 4000 -RASN TEMPO 2707/2709 20020G35KT 2000 RA BKN010 BKN015 BECMG 2709/2711 26018G35KT 9999 NSW SCT020 BKN025 TEMPO 2711/2715 28020G45KT

Orly

LFPO 261900Z 27010KT 9999 FEW041 BKN060 05/01 Q1012 NOSIG

TAF LFPO 261700Z 2618/2724 27012KT 9999 BKN020 TEMPO 2618/2619 27018G28KT 3000 SHRA BKN012 BKN020CB BECMG 2703/2705 18015G25KT BKN012 TEMPO 2705/2711 21020G35KT 3000 RA BKN008 PROB30 TEMPO 2706/2708 1500 SN BECMG 2712/2713 30018G28KT BKN020 TEMPO 2713/2716 30025G45KT BECMG 2718/2720 27007KT CAVOK

Roissy

LFPG 261900Z 26008KT CAVOK 05/M00 Q1011 NOSIG

TAF LFPG 261700Z 2618/2724 25013KT 9999 BKN025 TX10/2712Z TN02/2705Z PROB40 TEMPO 2618/2619 27015G30KT 3000 SHRA SCT020CB BECMG 2703/2705 18015G30KT 4000 -RA BKN012 PROB40 TEMPO 2705/2709 2000 -SNRA BKN008 PROB30 TEMPO 2705/2708 -SN BECMG 2711/2713 31015G35KT 9999 NSW BKN020 TEMPO 2713/2715 31020G45KT BECMG 2720/2722 27010KT

Share This